85.0000; 156.5000;1; 283.621; 255.656;2004.09.10 00:00:00; -10.0;1016.2;   3.0; 240.0;    .000;    .000;   0.000; 90;
85.0000; 156.5000;2; 283.621; 255.656;2004.09.10 06:00:00;  -9.1;1017.5;   2.0; 260.0;    .000;    .250;   0.000; 90;
85.0000; 157.2000;2; 283.881; 255.050;2004.09.10 18:00:00;  -4.3;1017.9;   2.0; 130.0;   6.784;    .750;   0.565; 90;
85.0000; 157.2000;2; 283.881; 255.050;2004.09.11 00:00:00;  -4.2;1017.2;   2.0; 100.0;   6.784;   1.000;   0.000; 90;
85.0000; 157.2000;2; 283.881; 255.050;2004.09.11 12:00:00; -10.0;1016.6;   4.0; 130.0;   6.784;   1.500;   0.000; 90;
85.0000; 157.3000;2; 283.917; 254.963;2004.09.11 18:00:00; -12.7;1015.2;   3.0; 120.0;   7.753;   1.750;   0.162; 90;
85.1000; 157.5000;2; 282.991; 254.375;2004.09.13 00:00:00;  -1.0;1016.3;   2.0; 160.0;  19.037;   3.000;   0.376; 10;
85.1000; 157.5000;2; 282.991; 254.375;2004.09.13 06:00:00;  -0.6;1015.9;   3.0; 180.0;  19.037;   3.250;   0.000; 90;
85.1000; 157.5000;2; 282.991; 254.375;2004.09.13 12:00:00;  -4.2;1015.6;   3.0; 180.0;  19.037;   3.500;   0.000; 90;
85.1000; 157.8000;2; 283.096; 254.119;2004.09.13 18:00:00; -10.0;1015.0;   4.0; 170.0;  21.886;   3.750;   0.475; 90;
85.1000; 157.8000;2; 283.096; 254.119;2004.09.14 00:00:00;  -7.6;1013.1;   4.0; 160.0;  21.886;   4.000;   0.000; 90;
85.1000; 157.8000;2; 283.096; 254.119;2004.09.14 06:00:00;  -3.5;1011.0;   4.0; 170.0;  21.887;   4.250;   0.000; 90;
85.1000; 157.8000;2; 283.096; 254.119;2004.09.14 12:00:00;  -2.0;1008.5;   5.0; 160.0;  21.887;   4.500;   0.000; 90;
85.2000; 158.4000;2; 282.298; 253.208;2004.09.14 18:00:00;  -2.9;1005.3;   6.0; 160.0;  34.355;   4.750;   2.078; 27;
85.2000; 158.4000;2; 282.298; 253.208;2004.09.15 00:00:00;  -2.0; 999.9;   5.0; 170.0;  34.355;   5.000;   0.000; 90;
85.2000; 158.4000;2; 282.298; 253.208;2004.09.15 06:00:00;  -0.3; 998.7;   7.0; 210.0;  34.355;   5.250;   0.000; 90;
85.2000; 158.4000;2; 282.298; 253.208;2004.09.15 12:00:00;  -1.8; 999.7;   6.0; 230.0;  34.355;   5.500;   0.000; 90;
85.2000; 159.4000;2; 282.624; 252.365;2004.09.15 18:00:00;  -3.3;1000.5;   5.0; 220.0;  43.659;   5.750;   1.551; 90;
85.2000; 159.4000;2; 282.624; 252.365;2004.09.16 00:00:00;  -3.5; 999.9;   4.0; 240.0;  43.659;   6.000;   0.000; 90;
85.2000; 159.4000;2; 282.624; 252.365;2004.09.16 06:00:00;  -3.9; 999.7;   2.0; 260.0;  43.659;   6.250;   0.000; 90;
85.2000; 159.4000;2; 282.624; 252.365;2004.09.16 12:00:00;  -4.5;1001.0;   3.0; 280.0;  43.659;   6.500;   0.000; 90;
85.2000; 159.6000;2; 282.687; 252.195;2004.09.16 18:00:00;  -9.0;1002.6;   5.0; 330.0;  45.520;   6.750;   0.310; 90;
85.2000; 159.6000;2; 282.687; 252.195;2004.09.17 00:00:00;  -9.9;1005.8;   5.0; 340.0;  45.520;   7.000;   0.000; 90;
85.2000; 159.6000;2; 282.687; 252.195;2004.09.17 06:00:00;  -9.0;1008.9;   3.0; 280.0;  45.520;   7.250;   0.000; 90;
85.2000; 159.6000;2; 282.687; 252.195;2004.09.17 12:00:00;  -6.6;1010.2;   4.0; 290.0;  45.520;   7.500;   0.000; 90;
85.2000; 159.3000;2; 282.592; 252.449;2004.09.17 18:00:00;  -7.1;1011.5;   4.0; 280.0;  48.312;   7.750;   0.465;270;
85.2000; 159.3000;2; 282.592; 252.449;2004.09.18 00:00:00;  -7.2;1012.7;   4.0; 280.0;  48.312;   8.000;   0.000; 90;
85.2000; 159.3000;2; 282.592; 252.449;2004.09.18 06:00:00;  -8.0;1014.2;   4.0; 340.0;  48.312;   8.250;   0.000; 90;
85.2000; 159.3000;2; 282.592; 252.449;2004.09.18 12:00:00; -12.0;1016.4;   2.0; 300.0;  48.312;   8.500;   0.000; 90;
85.1000; 159.4000;2; 283.635; 252.745;2004.09.18 18:00:00; -15.6;1017.0;   2.0; 270.0;  59.471;   8.750;   1.860;175;
85.1000; 159.4000;2; 283.635; 252.745;2004.09.19 00:00:00; -11.1;1018.3;   2.0; 320.0;  59.471;   9.000;   0.000; 90;
85.1000; 159.4000;2; 283.635; 252.745;2004.09.19 06:00:00; -10.3;1018.3;   2.0; 290.0;  59.471;   9.250;   0.000; 90;
85.1000; 159.4000;2; 283.635; 252.745;2004.09.19 12:00:00;  -9.3;1019.0;   2.0; 180.0;  59.471;   9.500;   0.000; 90;
85.1000; 159.5000;2; 283.668; 252.658;2004.09.19 18:00:00; -12.3;1018.6;   1.0; 240.0;  60.421;   9.750;   0.158; 90;
85.1000; 159.5000;2; 283.668; 252.658;2004.09.20 00:00:00; -12.7;1017.9;   4.0; 170.0;  60.421;  10.000;   0.000; 90;
85.1000; 159.5000;2; 283.668; 252.658;2004.09.20 06:00:00; -10.1;1017.4;   4.0; 150.0;  60.421;  10.250;   0.000; 90;
85.1000; 159.5000;2; 283.668; 252.658;2004.09.20 12:00:00; -11.0;1018.6;   4.0; 130.0;  60.421;  10.500;   0.000; 90;
85.2000; 159.7000;2; 282.719; 252.111;2004.09.20 18:00:00; -10.5;1019.1;   2.0; 160.0;  71.698;  10.750;   1.880; 10;
85.2000; 159.7000;2; 282.719; 252.111;2004.09.21 00:00:00; -17.3;1019.6;   2.0; 190.0;  71.698;  11.000;   0.000; 90;
85.2000; 159.7000;2; 282.719; 252.111;2004.09.21 06:00:00; -12.5;1016.6;   3.0; 190.0;  71.698;  11.250;   0.000; 90;
85.2000; 159.7000;2; 282.719; 252.111;2004.09.21 12:00:00;  -8.8;1013.1;   6.0; 200.0;  71.698;  11.500;   0.000; 90;
85.2000; 160.1000;2; 282.843; 251.771;2004.09.21 18:00:00;  -9.1;1010.9;   2.0; 250.0;  75.420;  11.750;   0.620; 90;
85.2000; 160.1000;2; 282.843; 251.771;2004.09.22 00:00:00; -11.0;1012.6;   8.0; 120.0;  75.420;  12.000;   0.000; 90;
85.2000; 160.1000;2; 282.843; 251.771;2004.09.22 06:00:00; -12.3;1015.0;   9.0;  90.0;  75.420;  12.250;   0.000; 90;
85.2000; 160.1000;2; 282.843; 251.771;2004.09.22 12:00:00; -13.3;1018.2;   6.0;  70.0;  75.420;  12.500;   0.000; 90;
85.3000; 159.4000;2; 281.613; 251.985;2004.09.22 18:00:00; -13.2;1019.2;   5.0;  50.0;  88.273;  12.750;   2.142;330;
85.3000; 159.4000;2; 281.613; 251.985;2004.09.23 00:00:00; -11.9;1021.1;   5.0;  40.0;  88.273;  13.000;   0.000; 90;
85.3000; 159.4000;2; 281.613; 251.985;2004.09.23 12:00:00; -21.9;1023.6;   3.0; 340.0;  88.273;  13.500;   0.000; 90;
85.3000; 158.7000;2; 281.391; 252.563;2004.09.23 18:00:00; -22.7;1024.2;   3.0; 330.0;  94.651;  13.750;   1.063;270;
85.3000; 158.7000;2; 281.391; 252.563;2004.09.24 00:00:00; -12.4;1024.3;   4.0;  10.0;  94.651;  14.000;   0.000; 90;
85.3000; 158.7000;2; 281.391; 252.563;2004.09.24 06:00:00; -12.4;1023.9;   3.0; 360.0;  94.651;  14.250;   0.000; 90;
85.3000; 158.7000;2; 281.391; 252.563;2004.09.24 12:00:00; -15.9;1024.1;   3.0; 320.0;  94.651;  14.500;   0.000; 90;
85.2000; 158.5000;2; 282.332; 253.124;2004.09.24 18:00:00; -23.4;1023.9;   3.0; 260.0; 105.923;  14.750;   1.879;189;
85.2000; 158.5000;2; 282.332; 253.124;2004.09.25 00:00:00; -20.8;1022.6;   3.0; 210.0; 105.923;  15.000;   0.000; 90;
85.2000; 158.5000;2; 282.332; 253.124;2004.09.25 06:00:00; -13.6;1020.4;   7.0; 210.0; 105.923;  15.250;   0.000; 90;
85.2000; 158.5000;2; 282.332; 253.124;2004.09.25 12:00:00; -11.0;1019.8;   6.0; 230.0; 105.923;  15.500;   0.000; 90;
85.2000; 159.4000;2; 282.624; 252.365;2004.09.25 18:00:00; -15.2;1019.1;   5.0; 210.0; 114.297;  15.750;   1.396; 90;
85.2000; 159.4000;2; 282.624; 252.365;2004.09.26 00:00:00; -11.0;1017.5;   7.0; 200.0; 114.297;  16.000;   0.000; 90;
85.2000; 159.4000;2; 282.624; 252.365;2004.09.26 06:00:00; -12.8;1014.9;   8.0; 210.0; 114.297;  16.250;   0.000; 90;
85.2000; 159.4000;2; 282.624; 252.365;2004.09.26 12:00:00; -12.2;1014.8;   8.0; 210.0; 114.297;  16.500;   0.000; 90;
85.3000; 161.0000;2; 282.092; 250.652;2004.09.26 18:00:00; -13.4;1013.3;   7.0; 210.0; 132.754;  16.750;   3.076; 53;
85.3000; 161.0000;2; 282.092; 250.652;2004.09.27 00:00:00; -10.3;1011.7;   7.0; 210.0; 132.754;  17.000;   0.000; 90;
85.3000; 161.0000;2; 282.092; 250.652;2004.09.27 06:00:00;  -9.5;1010.6;   8.0; 230.0; 132.754;  17.250;   0.000; 90;
85.3000; 161.0000;2; 282.092; 250.652;2004.09.27 12:00:00;  -8.2;1010.5;   7.0; 230.0; 132.754;  17.500;   0.000; 90;
85.3000; 162.3000;2; 282.455; 249.560;2004.09.27 18:00:00;  -7.4;1009.8;   6.0; 260.0; 144.598;  17.750;   1.974; 90;
85.3000; 162.3000;2; 282.455; 249.560;2004.09.28 00:00:00;  -8.1;1010.7;   5.0; 310.0; 144.598;  18.000;   0.000; 90;
85.3000; 162.3000;2; 282.455; 249.560;2004.09.28 06:00:00;  -8.9;1011.9;   4.0; 290.0; 144.598;  18.250;   0.000; 90;
85.3000; 162.3000;2; 282.455; 249.560;2004.09.28 12:00:00; -10.4;1012.5;   3.0; 270.0; 144.598;  18.500;   0.000; 90;
85.2000; 162.7000;2; 283.592; 249.544;2004.09.28 18:00:00; -13.8;1012.4;   3.0; 280.0; 156.312;  18.750;   1.952;162;
85.2000; 162.7000;2; 283.592; 249.544;2004.09.29 00:00:00;  -9.8;1012.9;   3.0; 350.0; 156.312;  19.000;   0.000; 90;
85.2000; 162.7000;2; 283.592; 249.544;2004.09.29 06:00:00;  -9.1;1010.9;   5.0; 230.0; 156.312;  19.250;   0.000; 90;
85.2000; 162.7000;2; 283.592; 249.544;2004.09.29 12:00:00;  -9.1;1010.3;   4.0; 230.0; 156.312;  19.500;   0.000; 90;
85.2000; 163.2000;2; 283.725; 249.111;2004.09.29 18:00:00;  -7.8;1009.5;   4.0; 240.0; 160.964;  19.750;   0.775; 90;
85.2000; 163.2000;2; 283.725; 249.111;2004.09.30 00:00:00;  -6.8;1006.8;   5.0; 240.0; 160.964;  20.000;   0.000; 90;
85.2000; 163.2000;2; 283.725; 249.111;2004.09.30 06:00:00;  -4.1;1008.1;   5.0; 250.0; 160.964;  20.250;   0.000; 90;
85.2000; 163.2000;2; 283.725; 249.111;2004.09.30 12:00:00;  -5.5;1008.3;   6.0; 260.0; 160.964;  20.500;   0.000; 90;
85.2000; 164.0000;2; 283.929; 248.418;2004.09.30 18:00:00;  -5.2;1007.0;   7.0; 250.0; 168.408;  20.750;   1.241; 90;
85.2000; 164.0000;2; 283.929; 248.418;2004.10.01 00:00:00;  -4.6;1005.8;   8.0; 250.0; 168.408;  21.000;   0.000; 90;
85.2000; 164.0000;2; 283.929; 248.418;2004.10.01 06:00:00;  -4.5;1003.8;   8.0; 240.0; 168.408;  21.250;   0.000; 90;
85.2000; 164.0000;2; 283.929; 248.418;2004.10.01 12:00:00;  -3.7;1001.8;   8.0; 230.0; 168.408;  21.500;   0.000; 90;
85.1000; 165.2000;2; 285.262; 247.648;2004.10.01 18:00:00;  -3.3; 999.3;   8.0; 230.0; 184.248;  21.750;   2.640;135;
85.1000; 165.2000;2; 285.262; 247.648;2004.10.02 00:00:00;  -2.8; 999.3;   5.0; 240.0; 184.248;  22.000;   0.000; 90;
85.1000; 165.2000;2; 285.262; 247.648;2004.10.02 06:00:00;  -5.0; 999.7;   4.0; 290.0; 184.248;  22.250;   0.000; 90;
85.1000; 165.2000;2; 285.262; 247.648;2004.10.02 12:00:00;  -5.5;1000.9;   5.0;  30.0; 184.248;  22.500;   0.000; 90;
85.1000; 165.1000;2; 285.238; 247.737;2004.10.02 18:00:00; -11.9;1002.3;   7.0;  20.0; 185.198;  22.750;   0.158;270;
85.1000; 165.1000;2; 285.238; 247.737;2004.10.03 00:00:00; -13.1;1003.5;   6.0;  20.0; 185.198;  23.000;   0.000; 90;
85.1000; 165.1000;2; 285.238; 247.737;2004.10.03 06:00:00; -12.7;1003.7;   4.0; 360.0; 185.198;  23.250;   0.000; 90;
85.1000; 165.1000;2; 285.238; 247.737;2004.10.03 12:00:00; -13.4;1004.3;   3.0; 350.0; 185.198;  23.500;   0.000; 90;
85.1000; 165.1000;2; 285.238; 247.737;2004.10.03 18:00:00; -13.3;1005.1;   0.0;   0.0; 185.198;  23.750;   0.000; 90;
85.1000; 165.1000;2; 285.238; 247.737;2004.10.04 00:00:00; -13.7;1005.9;   2.0; 280.0; 185.198;  24.000;   0.000; 90;
85.1000; 165.1000;2; 285.238; 247.737;2004.10.04 06:00:00; -15.3;1007.3;   2.0; 230.0; 185.199;  24.250;   0.000; 90;
85.1000; 164.5000;2; 285.093; 248.271;2004.10.04 12:00:00; -16.1;1009.3;   1.0; 190.0; 190.897;  24.500;   0.950;270;
85.1000; 164.7000;2; 285.142; 248.093;2004.10.04 18:00:00; -14.1;1010.3;   1.0; 140.0; 192.797;  24.750;   0.317; 90;
85.1000; 164.7000;2; 285.142; 248.093;2004.10.05 00:00:00; -12.7;1011.3;   3.0; 130.0; 192.797;  25.000;   0.000; 90;
85.1000; 164.7000;2; 285.142; 248.093;2004.10.05 06:00:00; -13.4;1011.7;   3.0; 120.0; 192.797;  25.250;   0.000; 90;
85.1000; 164.7000;2; 285.142; 248.093;2004.10.05 12:00:00; -14.1;1013.4;   1.0; 180.0; 192.797;  25.500;   0.000; 90;
85.2000; 164.9000;2; 284.147; 247.634;2004.10.05 18:00:00; -15.9;1015.5;   3.0; 220.0; 204.075;  25.750;   1.880; 10;
85.2000; 164.9000;2; 284.147; 247.634;2004.10.06 00:00:00; -20.0;1017.5;   0.0;   0.0; 204.075;  26.000;   0.000; 90;
85.2000; 164.9000;2; 284.147; 247.634;2004.10.06 06:00:00; -14.4;1017.6;   4.0;  90.0; 204.075;  26.250;   0.000; 90;
85.2000; 164.9000;2; 284.147; 247.634;2004.10.06 12:00:00; -12.1;1018.0;   3.0; 120.0; 204.075;  26.500;   0.000; 90;
85.2000; 164.7000;2; 284.100; 247.808;2004.10.06 18:00:00; -10.0;1019.0;   3.0; 140.0; 205.935;  26.750;   0.310;270;
85.2000; 164.7000;2; 284.100; 247.808;2004.10.07 00:00:00; -10.7;1020.4;   3.0; 150.0; 205.935;  27.000;   0.000; 90;
85.2000; 164.7000;2; 284.100; 247.808;2004.10.07 06:00:00; -10.1;1021.4;   4.0; 170.0; 205.935;  27.250;   0.000; 90;
85.2000; 164.7000;2; 284.100; 247.808;2004.10.07 12:00:00; -10.1;1022.7;   3.0; 180.0; 205.935;  27.500;   0.000; 90;
85.3000; 164.8000;2; 283.081; 247.438;2004.10.07 18:00:00; -12.8;1023.8;   3.0; 170.0; 217.094;  27.750;   1.860;  5;
85.3000; 164.8000;2; 283.081; 247.438;2004.10.08 00:00:00; -14.9;1024.6;   4.0; 120.0; 217.094;  28.000;   0.000; 90;
85.3000; 164.8000;2; 283.081; 247.438;2004.10.08 06:00:00; -13.8;1024.6;   6.0; 110.0; 217.094;  28.250;   0.000; 90;
85.3000; 164.8000;2; 283.081; 247.438;2004.10.08 12:00:00; -14.5;1024.6;   7.0; 130.0; 217.094;  28.500;   0.000; 90;
85.4000; 164.6000;2; 281.993; 247.322;2004.10.08 18:00:00; -15.7;1025.1;   6.0; 130.0; 228.358;  28.750;   1.877;351;
85.4000; 164.6000;2; 281.993; 247.322;2004.10.09 00:00:00; -19.5;1026.3;   5.0; 140.0; 228.358;  29.000;   0.000; 90;
85.4000; 164.6000;2; 281.993; 247.322;2004.10.09 06:00:00; -20.2;1026.6;   3.0; 140.0; 228.358;  29.250;   0.000; 90;
85.4000; 164.6000;2; 281.993; 247.322;2004.10.09 12:00:00; -20.1;1027.2;   2.0; 160.0; 228.358;  29.500;   0.000; 90;
85.4000; 164.6000;2; 281.993; 247.322;2004.10.09 18:00:00; -25.3;1027.0;   3.0; 120.0; 228.358;  29.750;   0.000; 90;
85.4000; 164.6000;2; 281.993; 247.322;2004.10.10 00:00:00; -24.9;1027.8;   4.0; 160.0; 228.358;  30.000;   0.000; 90;
85.4000; 164.6000;2; 281.993; 247.322;2004.10.10 06:00:00; -17.7;1027.8;   3.0; 110.0; 228.358;  30.250;   0.000; 90;
85.4000; 164.6000;2; 281.993; 247.322;2004.10.10 12:00:00; -17.0;1028.8;   4.0; 160.0; 228.358;  30.500;   0.000; 90;
85.5000; 164.6000;2; 280.952; 247.035;2004.10.10 18:00:00; -20.1;1029.4;   3.0; 190.0; 239.477;  30.750;   1.853;  0;
85.5000; 164.6000;2; 280.952; 247.035;2004.10.11 00:00:00; -17.4;1029.6;   3.0; 150.0; 239.477;  31.000;   0.000; 90;
85.5000; 164.6000;2; 280.952; 247.035;2004.10.11 06:00:00; -18.9;1028.8;   3.0; 160.0; 239.477;  31.250;   0.000; 90;
85.5000; 164.6000;2; 280.952; 247.035;2004.10.11 12:00:00; -21.9;1027.5;   3.0; 120.0; 239.477;  31.500;   0.000; 90;
85.5000; 164.8000;2; 280.996; 246.871;2004.10.11 18:00:00; -16.5;1025.5;   3.0; 140.0; 241.222;  31.750;   0.291; 90;
85.5000; 164.8000;2; 280.996; 246.871;2004.10.12 00:00:00; -15.8;1025.4;   4.0; 200.0; 241.222;  32.000;   0.000; 90;
85.5000; 164.8000;2; 280.996; 246.871;2004.10.12 06:00:00; -15.6;1025.9;   3.0; 210.0; 241.222;  32.250;   0.000; 90;
85.5000; 164.8000;2; 280.996; 246.871;2004.10.12 12:00:00; -14.9;1024.4;   4.0; 100.0; 241.222;  32.500;   0.000; 90;
85.5000; 164.8000;2; 280.996; 246.871;2004.10.12 18:00:00; -14.7;1019.9;   6.0; 100.0; 241.222;  32.750;   0.000; 90;
85.5000; 164.8000;2; 280.996; 246.871;2004.10.13 06:00:00; -14.9;1017.4;   5.0; 170.0; 241.222;  33.250;   0.000; 90;
85.5000; 164.8000;2; 280.996; 246.871;2004.10.13 12:00:00; -16.2;1019.1;   3.0; 200.0; 241.222;  33.500;   0.000; 90;
85.6000; 165.0000;2; 279.997; 246.428;2004.10.13 18:00:00; -18.5;1020.4;   2.0; 210.0; 252.475;  33.750;   1.875;  9;
85.6000; 165.0000;2; 279.997; 246.428;2004.10.14 00:00:00; -19.4;1021.4;   2.0;  30.0; 252.475;  34.000;   0.000; 90;
85.6000; 165.0000;2; 279.997; 246.428;2004.10.14 06:00:00; -21.6;1022.0;   2.0;  90.0; 252.475;  34.250;   0.000; 90;
85.6000; 165.0000;2; 279.997; 246.428;2004.10.14 12:00:00; -20.0;1022.7;   2.0;  60.0; 252.475;  34.500;   0.000; 90;
85.6000; 165.0000;2; 279.997; 246.428;2004.10.14 18:00:00; -23.9;1022.6;   3.0;  60.0; 252.475;  34.750;   0.000; 90;
85.6000; 165.0000;2; 279.997; 246.428;2004.10.15 00:00:00; -19.7;1022.2;   3.0;  50.0; 252.475;  35.000;   0.000; 90;
85.6000; 165.0000;2; 279.997; 246.428;2004.10.15 06:00:00; -18.2;1020.4;   3.0;  60.0; 252.475;  35.250;   0.000; 90;
85.6000; 165.0000;2; 279.997; 246.428;2004.10.15 12:00:00; -15.3;1017.4;   5.0;  80.0; 252.475;  35.500;   0.000; 90;
85.7000; 164.5000;2; 278.848; 246.539;2004.10.15 18:00:00; -14.3;1013.9;   7.0; 100.0; 264.367;  35.750;   1.982;339;
85.7000; 164.5000;2; 278.848; 246.539;2004.10.16 00:00:00; -14.0;1012.3;   6.0;  90.0; 264.367;  36.000;   0.000; 90;
85.7000; 164.5000;2; 278.848; 246.539;2004.10.16 06:00:00; -13.4;1011.5;   6.0;  90.0; 264.367;  36.250;   0.000; 90;
85.7000; 164.5000;2; 278.848; 246.539;2004.10.16 12:00:00; -13.3;1010.5;   8.0; 100.0; 264.367;  36.500;   0.000; 90;
85.8000; 163.7000;2; 277.634; 246.859;2004.10.16 18:00:00; -13.4;1009.3;   9.0;  90.0; 277.294;  36.750;   2.155;329;
85.8000; 163.7000;2; 277.634; 246.859;2004.10.17 00:00:00; -12.4;1005.9;   9.0;  80.0; 277.294;  37.000;   0.000; 90;
85.9000; 162.2000;2; 276.258; 247.663;2004.10.17 06:00:00;  -8.6;1005.8;   9.0; 100.0; 293.704;  37.250;   2.735;313;
85.8000; 163.7000;2; 277.634; 246.859;2004.10.17 12:00:00;  -7.7;1001.1;  10.0; 110.0; 310.115;  37.500;   2.735;133;
85.9000; 162.2000;2; 276.258; 247.663;2004.10.17 18:00:00;  -6.8;1003.0;   9.0; 110.0; 326.525;  37.750;   2.735;313;
85.9000; 162.2000;2; 276.258; 247.663;2004.10.18 00:00:00;  -7.0;1004.9;   9.0; 110.0; 326.525;  38.000;   0.000; 90;
85.9000; 162.2000;2; 276.258; 247.663;2004.10.18 06:00:00;  -8.7;1005.0;  10.0;  90.0; 326.526;  38.250;   0.000; 90;
86.0000; 160.8000;2; 274.895; 248.333;2004.10.18 18:00:00; -11.6;1003.5;  10.0;  70.0; 342.162;  38.750;   1.303;315;
86.0000; 160.8000;2; 274.895; 248.333;2004.10.19 00:00:00; -11.0;1001.8;  10.0;  80.0; 342.162;  39.000;   0.000; 90;
86.0000; 160.8000;2; 274.895; 248.333;2004.10.19 06:00:00;  -8.0;1001.0;   8.0;  90.0; 342.162;  39.250;   0.000; 90;
86.0000; 160.8000;2; 274.895; 248.333;2004.10.19 12:00:00;  -6.6;1001.8;   5.0; 130.0; 342.162;  39.500;   0.000; 90;
86.1000; 159.4000;2; 273.526; 248.945;2004.10.19 18:00:00; -11.4;1003.7;   7.0; 180.0; 357.609;  39.750;   2.575;316;
86.1000; 159.4000;2; 273.526; 248.945;2004.10.20 00:00:00; -13.6;1006.9;   9.0; 180.0; 357.609;  40.000;   0.000; 90;
86.1000; 159.4000;2; 273.526; 248.945;2004.10.20 06:00:00; -12.0;1009.9;   6.0; 190.0; 357.609;  40.250;   0.000; 90;
86.1000; 159.4000;2; 273.526; 248.945;2004.10.20 12:00:00; -11.5;1011.8;   5.0; 190.0; 357.609;  40.500;   0.000; 90;
86.1000; 159.4000;2; 273.526; 248.945;2004.10.20 18:00:00; -12.2;1012.2;   5.0; 200.0; 357.609;  40.750;   0.000; 90;
86.1000; 159.4000;2; 273.526; 248.945;2004.10.21 00:00:00; -11.8;1012.3;   4.0; 250.0; 357.609;  41.000;   0.000; 90;
86.1000; 159.4000;2; 273.526; 248.945;2004.10.21 06:00:00; -12.3;1013.5;   4.0; 260.0; 357.609;  41.250;   0.000; 90;
86.1000; 159.4000;2; 273.526; 248.945;2004.10.21 12:00:00; -16.1;1016.2;   6.0; 260.0; 357.609;  41.500;   0.000; 90;
86.1000; 159.8000;2; 273.628; 248.669;2004.10.21 18:00:00; -14.5;1017.9;   6.0; 280.0; 360.634;  41.750;   0.504; 90;
86.1000; 159.8000;2; 273.628; 248.669;2004.10.22 00:00:00; -18.2;1020.2;   7.0; 300.0; 360.634;  42.000;   0.000; 90;
86.1000; 159.8000;2; 273.628; 248.669;2004.10.22 06:00:00; -20.1;1021.8;   4.0; 300.0; 360.634;  42.250;   0.000; 90;
86.1000; 159.8000;2; 273.628; 248.669;2004.10.22 12:00:00; -16.2;1022.0;   3.0; 290.0; 360.634;  42.500;   0.000; 90;
86.1000; 160.3000;2; 273.753; 248.324;2004.10.22 18:00:00; -15.1;1022.3;   3.0; 310.0; 364.416;  42.750;   0.630; 90;
86.1000; 160.3000;2; 273.753; 248.324;2004.10.23 00:00:00; -17.8;1022.3;   5.0; 320.0; 364.416;  43.000;   0.000; 90;
86.1000; 160.3000;2; 273.753; 248.324;2004.10.23 06:00:00; -17.8;1022.8;   2.0; 310.0; 364.416;  43.250;   0.000; 90;
86.1000; 160.3000;2; 273.753; 248.324;2004.10.23 12:00:00; -17.7;1023.0;   3.0; 280.0; 364.416;  43.500;   0.000; 90;
86.1000; 160.6000;2; 273.827; 248.117;2004.10.23 18:00:00; -18.5;1023.0;   3.0; 270.0; 366.685;  43.750;   0.378; 90;
86.1000; 160.6000;2; 273.827; 248.117;2004.10.24 00:00:00; -17.7;1023.5;   3.0; 300.0; 366.685;  44.000;   0.000; 90;
86.1000; 160.6000;2; 273.827; 248.117;2004.10.24 06:00:00; -25.9;1024.6;   3.0; 320.0; 366.685;  44.250;   0.000; 90;
86.1000; 160.6000;2; 273.827; 248.117;2004.10.24 12:00:00; -27.8;1026.4;   2.0; 330.0; 366.685;  44.500;   0.000; 90;
86.1000; 160.8000;2; 273.875; 247.978;2004.10.24 18:00:00; -21.3;1027.9;   1.0; 360.0; 368.197;  44.750;   0.252; 90;
86.1000; 160.8000;2; 273.875; 247.978;2004.10.25 00:00:00; -18.9;1030.3;   1.0; 310.0; 368.197;  45.000;   0.000; 90;
86.1000; 160.8000;2; 273.875; 247.978;2004.10.25 06:00:00; -19.4;1030.8;   1.0; 270.0; 368.197;  45.250;   0.000; 90;
86.1000; 160.8000;2; 273.875; 247.978;2004.10.25 12:00:00; -19.4;1031.2;   2.0; 280.0; 368.197;  45.500;   0.000; 90;
86.0000; 161.0000;2; 274.944; 248.191;2004.10.25 18:00:00; -17.5;1030.0;   3.0; 280.0; 379.422;  45.750;   1.871;172;
86.0000; 161.0000;2; 274.944; 248.191;2004.10.26 00:00:00; -22.0;1029.0;   2.0; 260.0; 379.422;  46.000;   0.000; 90;
86.0000; 161.0000;2; 274.944; 248.191;2004.10.26 06:00:00; -24.9;1026.8;   2.0; 230.0; 379.422;  46.250;   0.000; 90;
86.0000; 161.0000;2; 274.944; 248.191;2004.10.26 12:00:00; -29.1;1024.8;   3.0; 220.0; 379.422;  46.500;   0.000; 90;
86.0000; 161.3000;2; 275.017; 247.977;2004.10.26 18:00:00; -26.9;1021.6;   3.0; 240.0; 381.749;  46.750;   0.388; 90;
86.0000; 161.3000;2; 275.017; 247.977;2004.10.27 00:00:00; -28.8;1019.0;   3.0; 240.0; 381.749;  47.000;   0.000; 90;
86.0000; 161.3000;2; 275.017; 247.977;2004.10.27 06:00:00; -28.6;1016.3;   3.0; 230.0; 381.749;  47.250;   0.000; 90;
86.0000; 161.3000;2; 275.017; 247.977;2004.10.27 12:00:00; -29.0;1013.4;   3.0; 240.0; 381.749;  47.500;   0.000; 90;
86.0000; 161.8000;2; 275.137; 247.620;2004.10.27 18:00:00; -33.1;1011.3;   2.0; 200.0; 385.627;  47.750;   0.646; 90;
86.0000; 161.8000;2; 275.137; 247.620;2004.10.28 00:00:00; -32.2;1009.5;   2.0; 180.0; 385.627;  48.000;   0.000; 90;
86.0000; 161.8000;2; 275.137; 247.620;2004.10.28 06:00:00; -31.7;1008.9;   2.0; 220.0; 385.627;  48.250;   0.000; 90;
86.0000; 161.8000;2; 275.137; 247.620;2004.10.28 12:00:00; -27.7;1008.2;   1.0; 170.0; 385.627;  48.500;   0.000; 90;
86.0000; 162.1000;2; 275.207; 247.405;2004.10.28 18:00:00; -24.7;1006.5;   2.0; 190.0; 387.954;  48.750;   0.388; 90;
86.0000; 162.1000;2; 275.207; 247.405;2004.10.29 00:00:00; -23.3;1004.9;   2.0; 220.0; 387.954;  49.000;   0.000; 90;
86.0000; 162.1000;2; 275.207; 247.405;2004.10.29 06:00:00; -24.9;1002.5;   2.0; 200.0; 387.954;  49.250;   0.000; 90;
86.0000; 162.1000;2; 275.207; 247.405;2004.10.29 12:00:00; -23.7;1000.5;   2.0; 230.0; 387.954;  49.500;   0.000; 90;
86.0000; 162.5000;2; 275.298; 247.118;2004.10.29 18:00:00; -22.4; 998.7;   3.0; 250.0; 391.056;  49.750;   0.517; 90;
86.0000; 162.5000;2; 275.298; 247.118;2004.10.30 00:00:00; -26.9; 997.3;   5.0; 280.0; 391.056;  50.000;   0.000; 90;
86.0000; 162.5000;2; 275.298; 247.118;2004.10.30 06:00:00; -27.9; 996.3;   3.0; 310.0; 391.056;  50.250;   0.000; 90;
86.0000; 162.5000;2; 275.298; 247.118;2004.10.30 12:00:00; -30.9; 998.9;   5.0; 350.0; 391.056;  50.500;   0.000; 90;
86.0000; 162.6000;2; 275.321; 247.046;2004.10.30 18:00:00; -32.2;1003.3;   5.0; 360.0; 391.832;  50.750;   0.129; 90;
86.0000; 162.6000;2; 275.321; 247.046;2004.10.31 00:00:00; -33.9;1006.2;   3.0; 320.0; 391.832;  51.000;   0.000; 90;
86.0000; 162.6000;2; 275.321; 247.046;2004.10.31 06:00:00; -28.5;1006.9;   3.0; 220.0; 391.832;  51.250;   0.000; 90;
86.0000; 162.6000;2; 275.321; 247.046;2004.10.31 12:00:00; -25.1;1006.6;   5.0; 270.0; 391.832;  51.500;   0.000; 90;
86.0000; 162.6000;2; 275.321; 247.046;2004.10.31 18:00:00; -26.4;1006.3;   5.0; 270.0; 391.832;  51.750;   0.000; 90;
85.9000; 163.0000;2; 276.442; 247.074;2004.11.01 00:00:00; -27.2;1006.2;   4.0; 260.0; 403.387;  52.000;   1.926;164;
85.9000; 163.0000;2; 276.442; 247.074;2004.11.01 06:00:00; -29.8;1005.1;   3.0; 250.0; 403.387;  52.250;   0.000; 90;